Location: Estes Park
(40.3770°N, 105.5210°W)
Time: 18:16:49
(UTC-06:00)

OTV 5 (USA 277) - Pass Details

Date: 16 October 2017
Orbit: 404 x 417 km, 43.0° (Epoch: 07 September)

Event Time Altitude Azimuth Distance (km) Brightness Sun altitude
Rises 18:59:34 0° 273° (W) 2,346 ? -8.3°
Reaches altitude 10° 19:01:43 10° 279° (W) 1,485 ? -8.7°
Maximum altitude 19:05:00 52° 357° (N) 520 ? -9.3°
Enters shadow 19:07:46 14° 73° (ENE) 1,277 ? -9.8°
